When you browse on this site, cookies collect data to enhance your experience and personalize the content and advertising you see.
Visit our Privacy Policy to learn more. By continuing to use the site, you agree to this use of cookies and data.
  • In Hungary
  • List of Countries
  • For 7 days
  • Water Temperature
  • Weather Map
  • News
  • Weather Widgets
  • user-avatar
    Login

    Hourly Weather Ekaterinburg (Kolcovo)

    Today, 18 January, Saturday

    Time Temperature Precipitation Wind Pressure Humidity
    00:00 -10°C° 0 mm 1 mps 742 mmHg 94%
    01:00 -10°C° 0 mm 1 mps 742 mmHg 95%
    02:00 -12°C° 0 mm 2 mps 742 mmHg 95%
    03:00 -13°C° 0 mm 2 mps 742 mmHg 95%
    04:00 -10°C° 0 mm 2 mps 742 mmHg 97%
    05:00 -10°C° 0 mm 2 mps 742 mmHg 95%
    06:00 -9°C° 0 mm 2 mps 741 mmHg 93%
    07:00 -8°C° 0 mm 2 mps 741 mmHg 91%
    08:00 -8°C° 0 mm 3 mps 741 mmHg 90%
    09:00 -8°C° 0 mm 3 mps 740 mmHg 89%
    10:00 -8°C° 0 mm 4 mps 740 mmHg 88%
    11:00 -7°C° 0 mm 4 mps 739 mmHg 85%
    12:00 -6°C° 0 mm 5 mps 739 mmHg 82%
    13:00 -5°C° 0 mm 5 mps 738 mmHg 79%
    14:00 -5°C° 0 mm 5 mps 738 mmHg 81%
    15:00 -6°C° 0 mm 5 mps 738 mmHg 82%
    16:00 -6°C° 0 mm 5 mps 738 mmHg 84%
    17:00 -5°C° 0 mm 4 mps 738 mmHg 85%
    18:00 -5°C° 0 mm 4 mps 738 mmHg 87%
    19:00 -5°C° 0 mm 4 mps 738 mmHg 88%
    20:00 -5°C° 0 mm 4 mps 739 mmHg 88%
    21:00 -5°C° 0 mm 4 mps 739 mmHg 88%
    22:00 -5°C° 0 mm 3 mps 740 mmHg 88%
    23:00 -6°C° 0 mm 3 mps 740 mmHg 89%

    Tomorrow, 19 January, Sunday

    Time Temperature Precipitation Wind Pressure Humidity
    00:00 -6°C° 0 mm 3 mps 740 mmHg 90%
    01:00 -6°C° 0 mm 2 mps 741 mmHg 91%
    02:00 -7°C° 0 mm 2 mps 741 mmHg 92%
    03:00 -7°C° 0 mm 1 mps 742 mmHg 92%
    04:00 -7°C° 0 mm 1 mps 742 mmHg 93%
    05:00 -8°C° 0 mm 1 mps 742 mmHg 94%
    06:00 -9°C° 0 mm 1 mps 742 mmHg 94%
    07:00 -10°C° 0 mm 1 mps 742 mmHg 95%
    08:00 -12°C° 0 mm 2 mps 743 mmHg 91%
    09:00 -12°C° 0 mm 2 mps 743 mmHg 86%
    10:00 -12°C° 0 mm 2 mps 743 mmHg 82%
    11:00 -10°C° 0 mm 2 mps 743 mmHg 81%
    12:00 -9°C° 0 mm 2 mps 743 mmHg 80%
    13:00 -8°C° 0 mm 2 mps 743 mmHg 78%
    14:00 -8°C° 0 mm 2 mps 743 mmHg 82%
    15:00 -7°C° 0 mm 1 mps 743 mmHg 85%
    16:00 -8°C° 0 mm 1 mps 743 mmHg 88%
    17:00 -7°C° 0.1 mm 1 mps 743 mmHg 91%
    18:00 -7°C° 0.1 mm 0 mps 742 mmHg 93%
    19:00 -7°C° 0.1 mm 0 mps 742 mmHg 96%
    20:00 -7°C° 0.3 mm 1 mps 742 mmHg 95%
    21:00 -7°C° 0.3 mm 1 mps 742 mmHg 95%
    22:00 -8°C° 0.3 mm 2 mps 742 mmHg 95%
    23:00 -8°C° 0.2 mm 2 mps 741 mmHg 95%

    Day after tomorrow, 20 January, Monday

    Time Temperature Precipitation Wind Pressure Humidity
    00:00 -8°C° 0.2 mm 2 mps 741 mmHg 95%
    01:00 -8°C° 0.2 mm 2 mps 740 mmHg 95%
    02:00 -7°C° 0.4 mm 2 mps 740 mmHg 95%
    03:00 -7°C° 0.4 mm 2 mps 739 mmHg 95%
    04:00 -7°C° 0.4 mm 2 mps 739 mmHg 95%
    05:00 -7°C° 0.5 mm 2 mps 738 mmHg 95%
    06:00 -7°C° 0.5 mm 2 mps 738 mmHg 95%
    07:00 -7°C° 0.5 mm 2 mps 737 mmHg 95%
    08:00 -6°C° 0.5 mm 1 mps 737 mmHg 95%
    09:00 -6°C° 0.5 mm 1 mps 737 mmHg 95%
    10:00 -6°C° 0.5 mm 1 mps 737 mmHg 95%
    11:00 -7°C° 0.4 mm 2 mps 736 mmHg 94%
    12:00 -8°C° 0.4 mm 2 mps 736 mmHg 93%
    13:00 -8°C° 0.4 mm 2 mps 736 mmHg 93%
    14:00 -9°C° 0.1 mm 2 mps 736 mmHg 93%
    15:00 -10°C° 0.1 mm 2 mps 736 mmHg 94%
    16:00 -10°C° 0.1 mm 2 mps 737 mmHg 94%
    17:00 -12°C° 0 mm 2 mps 737 mmHg 95%
    18:00 -13°C° 0 mm 2 mps 737 mmHg 95%
    19:00 -14°C° 0 mm 2 mps 737 mmHg 96%
    20:00 -13°C° 0 mm 1 mps 737 mmHg 96%
    21:00 -13°C° 0 mm 1 mps 738 mmHg 97%
    22:00 -14°C° 0 mm 1 mps 738 mmHg 97%
    23:00 -15°C° 0 mm 1 mps 738 mmHg 97%

    21 January, Tuesday

    Time Temperature Precipitation Wind Pressure Humidity
    00:00 -15°C° 0 mm 1 mps 738 mmHg 97%
    01:00 -16°C° 0 mm 1 mps 738 mmHg 98%
    02:00 -16°C° 0 mm 1 mps 738 mmHg 98%
    03:00 -17°C° 0 mm 1 mps 738 mmHg 98%
    04:00 -17°C° 0 mm 1 mps 738 mmHg 98%
    05:00 -17°C° 0 mm 1 mps 738 mmHg 98%
    06:00 -17°C° 0 mm 1 mps 738 mmHg 98%
    07:00 -17°C° 0 mm 1 mps 738 mmHg 98%
    08:00 -17°C° 0 mm 1 mps 738 mmHg 97%
    09:00 -19°C° 0 mm 2 mps 738 mmHg 96%
    10:00 -18°C° 0 mm 2 mps 738 mmHg 95%
    11:00 -17°C° 0 mm 2 mps 737 mmHg 94%
    12:00 -16°C° 0 mm 2 mps 737 mmHg 93%
    13:00 -17°C° 0 mm 3 mps 736 mmHg 91%
    14:00 -17°C° 0 mm 3 mps 736 mmHg 92%
    15:00 -18°C° 0 mm 3 mps 736 mmHg 94%
    16:00 -18°C° 0 mm 3 mps 735 mmHg 95%
    17:00 -18°C° 0 mm 3 mps 735 mmHg 95%
    18:00 -19°C° 0 mm 3 mps 734 mmHg 95%
    19:00 -19°C° 0 mm 3 mps 734 mmHg 95%
    20:00 -19°C° 0 mm 3 mps 733 mmHg 95%
    21:00 -19°C° 0 mm 3 mps 732 mmHg 95%
    22:00 -18°C° 0 mm 3 mps 731 mmHg 95%
    23:00 -18°C° 0 mm 3 mps 731 mmHg 95%

    22 January, Wednesday

    Time Temperature Precipitation Wind Pressure Humidity
    00:00 -18°C° 0 mm 3 mps 730 mmHg 95%
    01:00 -18°C° 0 mm 3 mps 729 mmHg 95%
    02:00 -17°C° 0 mm 3 mps 728 mmHg 95%
    03:00 -17°C° 0 mm 4 mps 727 mmHg 94%
    04:00 -17°C° 0 mm 4 mps 726 mmHg 94%
    05:00 -16°C° 0 mm 4 mps 726 mmHg 92%
    06:00 -15°C° 0 mm 4 mps 725 mmHg 90%
    07:00 -14°C° 0 mm 4 mps 724 mmHg 89%
    08:00 -12°C° 0 mm 4 mps 723 mmHg 89%
    09:00 -11°C° 0 mm 4 mps 722 mmHg 88%
    10:00 -10°C° 0 mm 4 mps 721 mmHg 88%
    11:00 -9°C° 0.2 mm 4 mps 721 mmHg 88%
    12:00 -9°C° 0.2 mm 4 mps 720 mmHg 88%
    13:00 -8°C° 0.2 mm 4 mps 720 mmHg 88%
    14:00 -8°C° 0 mm 4 mps 719 mmHg 89%
    15:00 -8°C° 0 mm 4 mps 719 mmHg 89%
    16:00 -7°C° 0 mm 3 mps 718 mmHg 90%
    17:00 -8°C° 0 mm 3 mps 718 mmHg 91%
    18:00 -8°C° 0 mm 3 mps 717 mmHg 91%
    19:00 -8°C° 0 mm 3 mps 717 mmHg 92%
    20:00 -8°C° 0.2 mm 3 mps 717 mmHg 93%
    21:00 -8°C° 0.2 mm 3 mps 716 mmHg 94%
    22:00 -7°C° 0.2 mm 3 mps 716 mmHg 95%
    23:00 -7°C° 0.3 mm 3 mps 715 mmHg 95%

    23 January, Thursday

    Time Temperature Precipitation Wind Pressure Humidity
    00:00 -7°C° 0.3 mm 3 mps 714 mmHg 95%
    01:00 -8°C° 0.3 mm 4 mps 714 mmHg 94%
    02:00 -8°C° 0.4 mm 4 mps 713 mmHg 94%
    03:00 -8°C° 0.4 mm 4 mps 712 mmHg 94%
    04:00 -8°C° 0.4 mm 4 mps 711 mmHg 94%
    05:00 -8°C° 0.5 mm 4 mps 710 mmHg 93%
    06:00 -7°C° 0.5 mm 4 mps 710 mmHg 91%
    07:00 -7°C° 0.5 mm 5 mps 709 mmHg 90%
    08:00 -7°C° 0 mm 4 mps 709 mmHg 88%
    09:00 -7°C° 0 mm 3 mps 709 mmHg 87%
    10:00 -8°C° 0 mm 3 mps 708 mmHg 86%
    11:00 -8°C° 0.3 mm 4 mps 709 mmHg 88%
    12:00 -9°C° 0.3 mm 6 mps 710 mmHg 89%
    13:00 -8°C° 0.3 mm 7 mps 711 mmHg 91%
    14:00 -9°C° 0.1 mm 7 mps 712 mmHg 87%
    15:00 -11°C° 0.1 mm 7 mps 714 mmHg 84%
    16:00 -11°C° 0.1 mm 7 mps 715 mmHg 80%
    17:00 -11°C° 0 mm 6 mps 716 mmHg 82%
    18:00 -12°C° 0 mm 5 mps 717 mmHg 84%
    19:00 -13°C° 0 mm 5 mps 718 mmHg 85%
    20:00 -14°C° 0 mm 4 mps 719 mmHg 87%
    21:00 -14°C° 0 mm 4 mps 720 mmHg 88%
    22:00 -14°C° 0 mm 3 mps 720 mmHg 90%
    23:00 -14°C° 0 mm 3 mps 721 mmHg 90%
    Show more